Location: Unspecified
(0.0000°N, 0.0000°E)
Time: 20:52:11
(UTC+00:00)

Vanguard 1 Rocket - Visible Passes

Search period start: 14 July 2020 00:00
Search period end: 24 July 2020 00:00
Orbit: 653 x 4223 km, 34.3° (Epoch: 13 July)

Date Brightness Start Highest point End Pass type
(mag) Time Alt. Az. Time Alt. Az. Time Alt. Az.
14 Jul 10.9 18:46:07 10° NNW 19:05:31 45° NE 19:25:01 18° E visible
14 Jul 10.3 21:14:20 10° NW 21:39:44 86° SW 21:42:17 79° SSE visible
14 Jul 11.4 23:50:29 10° W 23:59:33 24° W 23:59:33 24° W visible
15 Jul 10.5 20:00:56 10° NW 20:23:58 73° NE 20:34:58 47° ESE visible
15 Jul 10.8 22:32:43 10° WNW 22:52:15 49° WSW 22:52:15 49° WSW visible
16 Jul 10.8 18:48:43 10° NW 19:08:23 53° NE 19:27:43 21° ESE visible
16 Jul 10.4 21:17:20 10° WNW 21:42:17 74° SW 21:45:00 71° S visible
16 Jul 11.5 23:55:16 10° W 00:02:17 19° WSW 00:02:17 19° WSW visible
17 Jul 10.5 20:03:42 10° NW 20:26:31 84° NE 20:37:47 48° ESE visible
17 Jul 10.9 22:36:33 10° WNW 22:55:05 42° WSW 22:55:05 42° WSW visible
18 Jul 10.6 18:51:22 10° NW 19:11:02 63° NE 19:30:38 23° ESE visible
18 Jul 10.5 21:20:35 10° WNW 21:44:54 63° SW 21:47:55 61° SSW visible
19 Jul 11.7 00:00:37 10° W 00:05:13 16° WSW 00:05:13 16° WSW visible
19 Jul 10.0 05:26:31 10° S 05:28:32 11° SSE 05:30:20 10° SSE visible
19 Jul 10.5 20:06:38 10° NW 20:29:04 84° SW 20:40:49 47° SE visible
19 Jul 11.1 22:40:50 10° W 22:58:06 36° SW 22:58:06 36° SW visible
20 Jul 10.5 18:54:07 10° NW 19:13:36 74° NE 19:33:44 24° ESE visible
20 Jul 10.6 21:24:09 10° WNW 21:47:43 54° SW 21:51:02 52° SSW visible
21 Jul 11.8 00:06:28 10° WSW 00:08:20 12° WSW 00:08:20 12° WSW visible
21 Jul 9.7 05:27:05 10° SSW 05:32:31 17° SSE 05:36:30 10° ESE visible
21 Jul 10.6 20:09:46 10° WNW 20:31:42 72° SW 20:43:59 43° SSE visible
21 Jul 11.2 22:45:37 10° W 23:01:18 30° SW 23:01:18 30° SW visible
22 Jul 10.3 04:15:05 10° SSW 04:19:31 13° S 04:23:21 10° SE visible
22 Jul 10.5 18:57:00 10° NW 19:16:10 86° NE 19:36:58 23° SE visible
22 Jul 10.8 21:28:06 10° W 21:50:47 45° SW 21:54:16 44° SSW visible
23 Jul 10.7 03:07:53 12° SSE 03:07:53 12° SSE 03:09:46 10° SSE visible
23 Jul 9.3 05:28:51 10° SSW 05:36:22 26° SSE 05:41:14 10° E visible
23 Jul 10.7 20:13:10 10° WNW 20:34:31 61° SW 20:47:16 39° SSE visible
23 Jul 11.4 22:50:55 10° WSW 23:04:34 25° SW 23:04:34 25° SW visible
